Regional Weather Roundup
Issued by NWS State College, PA

Home | Current Version | Previous Version | Text Only | Print | Product List | Glossary On
Versions: 1 2 3 4 5 6 7 8 9 10 11 12 13 14 15 16 17 18 19 20 21 22 23 24 25 26 27 28 29 30 31 32 33 34 35 36 37 38 39 40 41 42 43 44 45 46 47 48 49 50
000
ASUS41 KCTP 281310
RWRCTP

REGIONAL WEATHER ROUNDUP
NATIONAL WEATHER SERVICE STATE COLLEGE PA
900 AM EDT WED JUN 28 2017

Note: "fair" indicates few or no clouds below 12,000 feet with no
significant weather and/or obstructions to visibility.

* = STATION THAT DOES NOT REPORT PRECIPITATION /E.G. RAIN...SNOW...ETC/
    THUNDER OR FOG.

PAZ002>004-007>009-013>016-020>023-029>032-281400-
WESTERN PENNSYLVANIA

CITY           SKY/WX    TMP DP  RH WIND       PRES   REMARKS
ERIE           SUNNY     65  53  65 SW10      30.14R
MEADVILLE      SUNNY     60  50  69 SW8       30.17R
FRANKLIN*      SUNNY     61  46  59 SW8       30.18R
NEW CASTLE     FAIR      61  53  75 SW3       30.20R
BEAVER COUNTY  SUNNY     63  48  59 SW7       30.20R
BUTLER*        SUNNY     61  50  67 SW6       30.20R
PITTSBURGH INT SUNNY     63  50  62 SW5       30.20R
PITTSBURGH     SUNNY     61  49  64 S7        30.20R
INDIANA*       SUNNY     61  52  72 SW8       30.23R
LATROBE        SUNNY     61  54  77 SW12      30.21R
WASHINGTON CO* SUNNY     61  52  72 S3        30.23R
$$

PAZ004>006-010>012-017>019-024>028-033>037-041-042-045-046-049>053-281400-
CENTRAL PENNSYLVANIA

CITY           SKY/WX    TMP DP  RH WIND       PRES   REMARKS
BRADFORD       SUNNY     57  48  72 VRB5      30.16R
DUBOIS         MOSUNNY   58  47  66 MISG      30.17R
CLEARFIELD     SUNNY     55  50  83 SW5       30.19R
JOHNSTOWN      SUNNY     58  48  69 W7        30.21R
ALTOONA        SUNNY     61  50  67 SW6       30.20R
STATE COLLEGE  SUNNY     61  50  67 SW5       30.17S
WILLIAMSPORT   SUNNY     59  52  77 W3        30.15S
SELINSGROVE    SUNNY     61  53  75 SE3       30.17S
FT INDIANTOWN  MOSUNNY   65  55  69 S5        30.17R
CAPITAL CITY   SUNNY     67  51  56 W7        30.17S
HARRISBURG     SUNNY     66  52  60 NW6       30.17R
YORK           SUNNY     67  53  61 W5        30.18S
$$

PAZ038>040-043-044-047-048-054-055-060>062-067>071-281400-
EASTERN PENNSYLVANIA

CITY           SKY/WX    TMP DP  RH WIND       PRES   REMARKS
SCRANTON       MOSUNNY   62  51  67 W8        30.15R
MOUNT POCONO   MOSUNNY   57  49  74 W10       30.16R
ALLENTOWN      SUNNY     65  52  62 W6        30.16R
QUAKERTOWN*    SUNNY     64  50  59 N6        30.18R
READING        SUNNY     67  53  61 W7        30.16R
LANCASTER      SUNNY     67  54  63 W12       30.18R
COATESVILLE    SUNNY     64  50  59 NW10      30.19R
POTTSTOWN      SUNNY     65  51  60 NW6       30.18R
BLUE BELL      SUNNY     64  52  63 NW5       30.18R
DOYLESTOWN     SUNNY     67  52  58 VRB5      30.16R
WILLOW GROVE   NOT AVBL
NORTH PHILA    MOSUNNY   70  53  54 NW8       30.17R
PHILADELPHIA   MOSUNNY   69  48  47 NW12G22   30.17R
$$




USA.gov is the U.S. government's official web portal to all federal, state and local government web resources and services.